EW7554 Weather Reports


time (UTC)temp
C
wind
direction
speed
KPH
gust
KPH
rain 1hr
cm
rain 24hr
cm
rain mn
cm
humidity
%
barometer
mb
20260902060024 22 28 1.6 4.8 0.00 0.00 0.00 70 1012.9
20260902054523 22 28 3.2 6.4 0.00 0.00 0.00 73 1012.0
20260902053023 22 44 1.6 3.2 0.00 0.00 0.00 73 1012.3
20260902051517 22 111 1.6 3.2 0.00 0.00 0.00 71 1012.8
20260902050014 23 60 0.0 1.6 0.00 0.00 0.00 70 1013.5
20260902044513 23 60 1.6 3.2 0.00 0.00 0.00 67 1012.5
20260902043012 23 103 1.6 4.8 0.00 0.00 0.00 67 1012.4
20260902041512 23 129 0.0 4.8 0.00 0.00 0.00 66 1012.1
20260902040013 23 227 0.0 1.6 0.00 0.00 0.00 68 1012.3
20260902034512 24 227 0.0 3.2 0.00 0.00 0.00 68 1012.1
20260902033022 24 229 1.6 4.8 0.00 0.00 0.00 67 1012.7
20260902031509 24 294 0.0 1.6 0.00 0.00 0.00 67 1012.9
20260902030009 24 294 0.0 1.6 0.00 0.00 0.00 66 1012.9
20260902024509 24 294 0.0 1.6 0.00 0.00 0.00 66 1012.7
20260902023008 25 294 0.0 1.6 0.00 0.00 0.00 66 1012.7
20260902021521 25 294 0.0 0.0 0.00 0.00 0.00 67 1012.6
20260902020008 25 294 0.0 0.0 0.00 0.00 0.00 68 1012.7
20260902014507 25 294 0.0 1.6 0.00 0.00 0.00 67 1012.6
20260902013006 25 294 0.0 1.6 0.00 0.00 0.00 66 1012.5
20260902011505 26 294 0.0 1.6 0.00 0.00 0.00 67 1012.4
20260902010010 26 294 0.0 1.6 0.00 0.00 0.00 66 1012.2
20260902004515 26 294 0.0 1.6 0.00 0.00 0.00 65 1012.2
20260902003004 27 294 0.0 4.8 0.00 0.00 0.00 64 1012.2
20260902001503 27 294 0.0 6.4 0.00 0.00 0.00 62 1012.3
20260902000006 27 257 1.6 4.8 0.00 0.00 0.00 62 1012.5
20260901234502 27 255 1.6 3.2 0.00 0.00 0.00 61 1012.6
20260901233001 27 254 1.6 4.8 0.00 0.00 0.00 60 1012.6
20260901231501 28 254 0.0 1.6 0.00 0.00 0.00 58 1012.6
20260901230100 28 254 1.6 4.8 0.00 0.00 0.00 57 1012.6
20260901224601 28 286 0.0 4.8 0.00 0.00 0.00 56 1012.6
20260901223100 28 288 1.6 8.0 0.00 0.00 0.00 55 1012.6
20260901221559 29 217 1.6 6.4 0.00 0.00 0.00 52 1012.6
20260901214558 28 212 3.2 8.0 0.00 0.00 0.00 55 1012.5
20260901213058 28 159 4.8 11.3 0.00 0.00 0.00 55 1012.5
20260901211558 28 232 4.8 9.7 0.00 0.00 0.00 56 1012.5
20260901210056 28 173 3.2 8.0 0.00 0.00 0.00 56 1012.3
20260901204556 28 178 3.2 6.4 0.00 0.00 0.00 52 1012.4
20260901203055 30 175 4.8 11.3 0.00 0.00 0.00 48 1012.7
20260901201553 30 200 4.8 8.0 0.00 0.00 0.00 48 1012.9
20260901200106 31 166 4.8 9.7 0.00 0.00 0.00 45 1012.7
20260901194601 30 278 1.6 9.7 0.00 0.00 0.00 47 1012.9
20260901193101 30 244 0.0 8.0 0.00 0.00 0.00 47 1012.8
20260901191548 30 236 0.0 14.5 0.00 0.00 0.00 45 1013.1
20260901190053 31 261 1.6 9.7 0.00 0.00 0.00 46 1013.1
20260901184551 30 248 1.6 9.7 0.00 0.00 0.00 45 1013.1
20260901183043 30 196 1.6 8.0 0.00 0.00 0.00 45 1013.0
20260901181542 31 217 1.6 6.4 0.00 0.00 0.00 43 1013.2
20260901180036 30 266 1.6 8.0 0.00 0.00 0.00 47 1013.5
20260901174539 30 309 3.2 8.0 0.00 0.00 0.00 47 1013.7
20260901173034 29 266 3.2 9.7 0.00 0.00 0.00 50 1013.8
20260901171529 30 319 1.6 9.7 0.00 0.00 0.00 47 1013.9
20260901170025 30 5 3.2 6.4 0.00 0.00 0.00 51 1013.9
20260901164522 30 302 1.6 4.8 0.00 0.00 0.00 50 1014.0
20260901163019 28 231 1.6 8.0 0.00 0.00 0.00 55 1013.9
20260901161518 28 311 0.0 4.8 0.00 0.00 0.00 59 1014.0
20260901160014 27 312 3.2 8.0 0.00 0.00 0.00 62 1013.7
20260901154508 26 321 3.2 8.0 0.00 0.00 0.00 62 1013.9
20260901153006 25 258 0.0 4.8 0.00 0.00 0.00 65 1013.8
20260901151502 25 268 3.2 6.4 0.00 0.00 0.00 65 1014.0
20260901150100 24 229 0.0 4.8 0.00 0.00 0.00 67 1014.0
20260901144553 23 227 1.6 8.0 0.00 0.00 0.00 69 1014.2
20260901143107 23 192 1.6 6.4 0.00 0.00 0.00 73 1014.2
20260901141546 22 197 1.6 6.4 0.00 0.00 0.00 76 1014.3
20260901140043 21 196 1.6 6.4 0.00 0.00 0.00 80 1014.3
20260901134538 20 176 3.2 6.4 0.00 0.00 0.00 83 1014.3
20260901133035 19 171 3.2 9.7 0.00 0.00 0.00 85 1014.5
20260901131535 20 233 1.6 4.8 0.00 0.00 0.00 86 1014.4
20260901130033 19 279 0.0 3.2 0.00 0.00 0.00 87 1014.1
20260901124529 18 279 0.0 4.8 0.00 0.00 0.00 89 1014.1
20260901123033 18 279 0.0 1.6 0.00 0.00 0.00 89 1014.1
20260901121528 18 279 0.0 3.2 0.00 0.00 0.00 90 1014.0
20260901120020 18 284 0.0 4.8 0.00 0.00 0.00 90 1013.8
20260901114517 18 286 1.6 4.8 0.00 0.00 0.00 90 1013.6
20260901113018 18 295 1.6 8.0 0.00 0.00 0.00 90 1013.4
20260901111517 18 279 3.2 6.4 0.00 0.00 0.00 90 1013.1
20260901110028 18 211 0.0 3.2 0.00 0.00 0.00 89 1013.1
20260901104513 18 211 0.0 6.4 0.00 0.00 0.00 90 1012.9
20260901103018 18 213 1.6 3.2 0.00 0.00 0.00 90 1012.8
20260901101523 18 213 0.0 3.2 0.00 0.00 0.00 90 1012.7
20260901100011 18 213 1.6 4.8 0.00 0.00 0.00 90 1012.7
20260901094510 18 215 1.6 4.8 0.00 0.00 0.00 90 1012.8
20260901093009 18 215 0.0 4.8 0.00 0.00 0.00 90 1012.7
20260901091508 18 216 0.0 3.2 0.00 0.00 0.00 89 1012.6
20260901090011 18 216 1.6 4.8 0.00 0.00 0.00 88 1012.6
20260901084504 19 216 0.0 3.2 0.00 0.00 0.00 88 1012.7
20260901083002 19 216 1.6 3.2 0.00 0.00 0.00 87 1012.6
20260901081501 20 216 0.0 1.6 0.00 0.00 0.00 87 1012.5
20260901074603 20 216 0.0 1.6 0.00 0.00 0.00 87 1012.6
20260901073059 20 216 1.6 4.8 0.00 0.00 0.00 86 1012.6
20260901071558 20 241 0.0 3.2 0.00 0.00 0.00 85 1012.7
20260901064555 20 241 0.0 3.2 0.00 0.00 0.00 84 1013.0
20260901063055 20 241 1.6 4.8 0.00 0.00 0.00 84 1013.1
20260901061552 20 242 1.6 4.8 0.00 0.00 0.00 83 1013.2